Regional Weather Roundup
Issued by NWS Green Bay, WI

Home | Current Version | Previous Version | Text Only | Print | Product List | Glossary On
Versions: 1 2 3 4 5 6 7 8 9 10 11 12 13 14 15 16 17 18 19 20 21 22 23 24 25 26 27 28 29 30 31 32 33 34 35 36 37 38 39 40 41 42 43 44 45 46 47 48 49 50
000
ASUS43 KGRB 071611
RWRGRB

NORTH-CENTRAL AND NORTHEAST WISCONSIN REGIONAL WEATHER ROUNDUP
NATIONAL WEATHER SERVICE GREEN BAY WI
1100 AM CDT TUE JUL 07 2015

WIZ005-009-010>012-018-019-071700-
NORTH CENTRAL WISCONSIN

CITY           SKY/WX    TMP DP  RH WIND       PRES   REMARKS
IRONWOOD       MOSUNNY   57  46  67 N8        30.11R
MANITOWISH WTR PTSUNNY   57  46  65 N12       30.12R
ARBOR VITAE    MOSUNNY   59  46  63 N10       30.11R
EAGLE RIVER    PTSUNNY   59  45  58 N12G22    30.10R
LAND O LAKES   PTSUNNY   59  44  58 N15G21    30.11R
RHINELANDER    PTSUNNY   59  45  59 N12       30.11R
PHILLIPS       PTSUNNY   58  45  61 N12G18    30.11S
ANTIGO         PTSUNNY   59  46  61 NE15      30.08S
TOMAHAWK       PTSUNNY   58  45  61 NE12G20   30.11S
MERRILL        CLOUDY    60  45  58 NE16G23   30.10S
$$

WIZ013-073-071700-
NORTHEAST WISCONSIN

CITY           SKY/WX    TMP DP  RH WIND       PRES   REMARKS
IRON MOUNTAIN  PTSUNNY   61  46  57 N16       30.05R
MARINETTE      PTSUNNY   61  46  59 N13G18    30.03S
OCONTO         PTSUNNY   61  46  58 N9G20     30.04S
$$

WIZ017-030-035>037-045-071700-
CENTRAL WISCONSIN

CITY           SKY/WX    TMP DP  RH WIND       PRES   REMARKS
MEDFORD        CLOUDY    58  47  66 N10       30.12R
WAUSAU         CLOUDY    60  42  51 N8G18     30.09R
MOSINEE        PTSUNNY   57  46  67 N14       30.11R
MARSHFIELD     CLOUDY    61  45  55 VRB7      30.11R
WISC RAPIDS    CLOUDY    62  45  53 N10       30.10R
STEVENS POINT  CLOUDY    58  46  63 N10       30.10R
WAUPACA        PTSUNNY   65  48  52 NW9       30.07S
SHAWANO        PTSUNNY   63  45  51 N13G22    30.07S
CLINTONVILLE   CLOUDY    63  43  48 N13G20    30.07R
$$

WIZ038-039-048-051-071700-
FOX VALLEY

CITY           SKY/WX    TMP DP  RH WIND       PRES   REMARKS
NWS GREEN BAY  CLOUDY    65  47  52 N18G24    30.04S
APPLETON       PTSUNNY   63  45  51 N14G20    30.05S
OSHKOSH        PTSUNNY   65  49  56 N14G24    30.04S
FOND DU LAC    PTSUNNY   65  49  56 N13       30.05R
$$

WIZ022-050-052-071700-
EAST CENTRAL WISCONSIN

CITY           SKY/WX    TMP DP  RH WIND       PRES   REMARKS
STURGEON BAY   CLOUDY    61  46  59 N16G22    30.06R
MANITOWOC      PTSUNNY   64  48  56 MISG      30.03R
SHEBOYGAN      PTSUNNY   64  48  56 N15G23    30.03R
$$

LMZ563-521-522-541>543-071700-
LAKESHORE

STATION/POSITION TIME  TEMP    WIND        PRES    VSBY  WAVE
                       AIR SEA DIR/SP/G                  HT/PER
                 (UTC) (F)     (DEG/KT/KT) (MB)    (MI)  (FT/S)
SHEBOYGAN LKSHOR 1600   59      10/ 11/ 12 1017.1R
KEWAUNEE LKSHORE 1500   63     340/ 12/ 16 1015.8R
NORTHPORT PIER   1500   58     350/ 19/ 23 1016.3R
N MID LAKE BUOY  1550   54 51  310/ 12/ 12 1015.9R         3/ 4
STURGEON BAY CG  1515   61     310/  9     1017.5      6   1
CHAMBERS ISLAND  1500   59     330/ 15/ 19 1016.9R
$$



USA.gov is the U.S. government's official web portal to all federal, state and local government web resources and services.